North Plainfield Burying Ground, New Jersey, United States
Lat: 40.64N, Lon: 74.46W
Wx Zone: NJZ010
Local Info
Past Weather Observations for Today

NOTE: This archive is for the closest National Weather Service station to North Plainfield Burying Ground. Information may differ from the station used for current weather conditions.

Click here for Long-term Archive

Time Weather Temperature Dewpoint Humidity Pressure Winds Precip Visibility
03:53
Clear
70°F / 21°C 66°F / 19°C 88% 29.89 in
(1012 mb)
Calm - 8SM
03:31
Clear
Fog And Mist
70°F / 21°C 66°F / 19°C 88% 29.89 in
(1012 mb)
Calm - 4SM
03:20
Clear
Fog And Mist
70°F / 21°C 66°F / 19°C 88% 29.92 in
(1013 mb)
Calm - 2SM
03:12
Clear
Fog And Mist
70°F / 21°C 66°F / 19°C 88% 29.92 in
(1013 mb)
Calm - 3SM
03:07
Clear
Fog And Mist
70°F / 21°C 66°F / 19°C 88% 29.92 in
(1013 mb)
Calm - 1 3/4SM
02:53
Clear
70°F / 21°C 66°F / 19°C 88% 29.92 in
(1013 mb)
Calm - 7SM
02:50
Clear
Fog And Mist
70°F / 21°C 68°F / 20°C 94% 29.92 in
(1013 mb)
Calm - 2SM
02:43
Clear
Fog And Mist
70°F / 21°C 66°F / 19°C 88% 29.92 in
(1013 mb)
Calm - 3/4SM
02:31
Clear
Fog And Mist
70°F / 21°C 68°F / 20°C 94% 29.92 in
(1013 mb)
Calm - 1 3/4SM
01:53
Partly Cloudy
70°F / 21°C 68°F / 20°C 94% 29.92 in
(1013 mb)
Calm - 7SM
01:42
Partly Cloudy
Fog And Mist
70°F / 21°C 68°F / 20°C 94% 29.92 in
(1013 mb)
Calm - 4SM
01:38
Partly Cloudy
Fog And Mist
72°F / 22°C 68°F / 20°C 88% 29.92 in
(1013 mb)
Calm - 1 1/4SM
01:28
Obscured
Fog
70°F / 21°C 68°F / 20°C 94% 29.92 in
(1013 mb)
Calm - 1/2SM
01:17
Clear
Fog And Mist
70°F / 21°C 70°F / 21°C 100% 29.92 in
(1013 mb)
Calm - 1 3/4SM
01:02
Partly Cloudy
Fog And Mist
72°F / 22°C 70°F / 21°C 94% 29.92 in
(1013 mb)
Calm - 4SM
00:59
Partly Cloudy
Fog And Mist
72°F / 22°C 70°F / 21°C 94% 29.92 in
(1013 mb)
Calm - 1 1/4SM
00:53
Obscured
Fog
70°F / 21°C 68°F / 20°C 94% 29.92 in
(1013 mb)
Calm - 1/2SM
00:44
Obscured
Fog And Mist
72°F / 22°C 70°F / 21°C 94% 29.92 in
(1013 mb)
Calm - 3/4SM
00:42
Clear
Fog And Mist
72°F / 22°C 70°F / 21°C 94% 29.92 in
(1013 mb)
Calm - 1 1/4SM
00:37
Clear
Fog And Mist
72°F / 22°C 70°F / 21°C 94% 29.92 in
(1013 mb)
Calm - 3SM
00:10
Clear
Fog And Mist
72°F / 22°C 70°F / 21°C 94% 29.95 in
(1014 mb)
Calm - 1 3/4SM
Time Weather Temperature Dewpoint Humidity Pressure Winds Precip Visibility


Weather for websites

WeatherForYou.com, LLC is not responsible for any damages or problems caused by this service. Current weather conditions are obtained from the closest station including government and personal stations which may have varying degrees of accuracy. Weather forecasts are derived from the NOAA NDFD. Like all things, this site belongs to Jesus Christ... He just trusts me to maintain it. If you have any questions or comments email webmaster@weatherforyou.com

Copyright © 2014, WeatherForYou.com LLC. All rights reserved.